Location: Saluda
(35.2377°N, 82.3468°W)
Time: 21:45:06
(UTC+00:00)

Tiros 1 - Pass Details

Date: 06 October 2022
Orbit: 629 x 662 km, 48.4° (Epoch: 08 December)

Event Time Altitude Azimuth Distance (km) Brightness Sun altitude
Exits shadow 09:28:05 57° 355° (N) 765 7.4 -25.2°
Maximum altitude 09:28:41 63° 34° (NE) 723 7.4 -25.1°
Drops below altitude 10° 09:33:20 10° 116° (ESE) 2,033 10.4 -24.2°
Sets 09:35:40 0° 119° (ESE) 2,934 11.3 -23.7°
